When you browse on this site, cookies collect data to enhance your experience and personalize the content and advertising you see.
Visit our Privacy Policy to learn more. By continuing to use the site, you agree to this use of cookies and data.
  • en Suisse
  • Liste des pays
  • À 7 jours
  • Température de l'eau
  • Carte satellitaire
  • Carte météo
  • Widgets météo
  • user-avatar
    Se connecter

    Météo par heure à Salzbourg

    Ce jour, 20 Mars, Mercredi

    Heure Température Précipitation Vent Pression Humidité
    00:00 -8°C° 0 mm 1 m/s 629 mmHg 94%
    01:00 -9°C° 0 mm 1 m/s 629 mmHg 94%
    02:00 -9°C° 0 mm 1 m/s 629 mmHg 94%
    03:00 -10°C° 0 mm 1 m/s 629 mmHg 93%
    04:00 -10°C° 0 mm 1 m/s 629 mmHg 93%
    05:00 -10°C° 0 mm 1 m/s 629 mmHg 92%
    06:00 -10°C° 0 mm 1 m/s 630 mmHg 91%
    07:00 -10°C° 0 mm 1 m/s 630 mmHg 90%
    08:00 -8°C° 0 mm 1 m/s 631 mmHg 85%
    09:00 -4°C° 0 mm 1 m/s 632 mmHg 81%
    10:00 -2°C° 0 mm 1 m/s 632 mmHg 76%
    11:00 -1°C° 0 mm 1 m/s 633 mmHg 76%
    12:00 -1°C° 0 mm 1 m/s 633 mmHg 76%
    13:00 0°C° 0 mm 1 m/s 633 mmHg 76%
    14:00 0°C° 0 mm 1 m/s 633 mmHg 76%
    15:00 0°C° 0 mm 1 m/s 633 mmHg 77%
    16:00 0°C° 0 mm 1 m/s 632 mmHg 78%
    17:00 -2°C° 0 mm 1 m/s 632 mmHg 82%
    18:00 -5°C° 0 mm 0 m/s 632 mmHg 86%
    19:00 -7°C° 0 mm 0 m/s 631 mmHg 90%
    20:00 -7°C° 0 mm 0 m/s 631 mmHg 90%
    21:00 -8°C° 0 mm 1 m/s 632 mmHg 91%
    22:00 -8°C° 0 mm 1 m/s 632 mmHg 91%
    23:00 -8°C° 0 mm 1 m/s 632 mmHg 90%

    Demain, 21 Mars, Jeudi

    Heure Température Précipitation Vent Pression Humidité
    00:00 -8°C° 0 mm 1 m/s 632 mmHg 88%
    01:00 -9°C° 0 mm 1 m/s 632 mmHg 87%
    02:00 -9°C° 0 mm 1 m/s 632 mmHg 85%
    03:00 -9°C° 0 mm 1 m/s 632 mmHg 83%
    04:00 -9°C° 0 mm 1 m/s 631 mmHg 80%
    05:00 -9°C° 0 mm 1 m/s 632 mmHg 78%
    06:00 -8°C° 0 mm 1 m/s 632 mmHg 76%
    07:00 -8°C° 0 mm 1 m/s 632 mmHg 73%
    08:00 -4°C° 0 mm 1 m/s 633 mmHg 72%
    09:00 -1°C° 0 mm 1 m/s 634 mmHg 70%
    10:00 +2°C° 0 mm 1 m/s 634 mmHg 68%
    11:00 +3°C° 0 mm 1 m/s 635 mmHg 69%
    12:00 +5°C° 0 mm 1 m/s 635 mmHg 70%
    13:00 +6°C° 0 mm 1 m/s 635 mmHg 71%
    14:00 +6°C° 0 mm 1 m/s 634 mmHg 73%
    15:00 +5°C° 0 mm 1 m/s 634 mmHg 75%
    16:00 +5°C° 0 mm 1 m/s 633 mmHg 77%
    17:00 +3°C° 0 mm 1 m/s 633 mmHg 79%
    18:00 +1°C° 0 mm 1 m/s 632 mmHg 81%
    19:00 -1°C° 0 mm 1 m/s 632 mmHg 83%
    20:00 -2°C° 0 mm 1 m/s 632 mmHg 82%
    21:00 -4°C° 0 mm 2 m/s 632 mmHg 81%
    22:00 -5°C° 0 mm 2 m/s 632 mmHg 80%
    23:00 -5°C° 0 mm 2 m/s 632 mmHg 77%

    Après-demain, 22 Mars, Vendredi

    Heure Température Précipitation Vent Pression Humidité
    00:00 -5°C° 0 mm 2 m/s 632 mmHg 74%
    01:00 -5°C° 0 mm 2 m/s 632 mmHg 72%
    02:00 -5°C° 0 mm 2 m/s 631 mmHg 70%
    03:00 -5°C° 0 mm 2 m/s 631 mmHg 68%
    04:00 -5°C° 0 mm 2 m/s 631 mmHg 66%
    05:00 -5°C° 0 mm 2 m/s 631 mmHg 65%
    06:00 -5°C° 0 mm 2 m/s 631 mmHg 64%
    07:00 -5°C° 0 mm 2 m/s 631 mmHg 64%
    08:00 +1°C° 0 mm 1 m/s 632 mmHg 66%
    09:00 +4°C° 0 mm 1 m/s 633 mmHg 69%
    10:00 +6°C° 0 mm 0 m/s 634 mmHg 71%
    11:00 +7°C° 0 mm 0 m/s 634 mmHg 69%
    12:00 +8°C° 0 mm 0 m/s 634 mmHg 68%
    13:00 +9°C° 0 mm 0 m/s 634 mmHg 66%
    14:00 +9°C° 0 mm 1 m/s 633 mmHg 70%
    15:00 +9°C° 0 mm 1 m/s 633 mmHg 73%
    16:00 +8°C° 0 mm 1 m/s 632 mmHg 76%
    17:00 +6°C° 0 mm 1 m/s 632 mmHg 79%
    18:00 +4°C° 0 mm 1 m/s 631 mmHg 82%
    19:00 +1°C° 0 mm 1 m/s 630 mmHg 84%
    20:00 +1°C° 0 mm 1 m/s 630 mmHg 83%
    21:00 -2°C° 0 mm 2 m/s 630 mmHg 81%
    22:00 -2°C° 0 mm 2 m/s 630 mmHg 80%
    23:00 -3°C° 0 mm 2 m/s 630 mmHg 77%

    23 Mars, Samedi

    Heure Température Précipitation Vent Pression Humidité
    00:00 -3°C° 0 mm 2 m/s 630 mmHg 75%
    01:00 -3°C° 0 mm 2 m/s 630 mmHg 73%
    02:00 -3°C° 0 mm 2 m/s 630 mmHg 72%
    03:00 -1°C° 0 mm 1 m/s 630 mmHg 72%
    04:00 -1°C° 0 mm 1 m/s 630 mmHg 72%
    05:00 -1°C° 0 mm 1 m/s 630 mmHg 73%
    06:00 -1°C° 0 mm 1 m/s 630 mmHg 74%
    07:00 -1°C° 0 mm 1 m/s 631 mmHg 75%
    08:00 +2°C° 0 mm 1 m/s 631 mmHg 74%
    09:00 +3°C° 0 mm 0 m/s 632 mmHg 72%
    10:00 +6°C° 0 mm 0 m/s 633 mmHg 70%
    11:00 +7°C° 0 mm 0 m/s 633 mmHg 68%
    12:00 +9°C° 0 mm 1 m/s 633 mmHg 65%
    13:00 +9°C° 0 mm 1 m/s 632 mmHg 63%
    14:00 +9°C° 0 mm 1 m/s 632 mmHg 66%
    15:00 +9°C° 0 mm 1 m/s 632 mmHg 69%
    16:00 +9°C° 0 mm 1 m/s 631 mmHg 72%
    17:00 +6°C° 0 mm 1 m/s 631 mmHg 78%
    18:00 +3°C° 0 mm 0 m/s 630 mmHg 84%
    19:00 0°C° 0 mm 0 m/s 629 mmHg 91%
    20:00 0°C° 0 mm 0 m/s 629 mmHg 91%
    21:00 +1°C° 0 mm 1 m/s 630 mmHg 91%
    22:00 +1°C° 0 mm 1 m/s 630 mmHg 92%
    23:00 0°C° 0 mm 1 m/s 630 mmHg 90%

    24 Mars, Dimanche

    Heure Température Précipitation Vent Pression Humidité
    00:00 0°C° 0 mm 1 m/s 629 mmHg 89%
    01:00 0°C° 0 mm 1 m/s 629 mmHg 88%
    02:00 0°C° 0 mm 1 m/s 629 mmHg 87%
    03:00 0°C° 0 mm 1 m/s 628 mmHg 86%
    04:00 -1°C° 0 mm 1 m/s 628 mmHg 85%
    05:00 0°C° 0 mm 1 m/s 628 mmHg 84%
    06:00 0°C° 0 mm 1 m/s 628 mmHg 82%
    07:00 0°C° 0 mm 1 m/s 629 mmHg 81%
    08:00 +2°C° 0 mm 1 m/s 629 mmHg 79%
    09:00 +5°C° 0 mm 1 m/s 630 mmHg 77%
    10:00 +7°C° 0 mm 1 m/s 631 mmHg 75%
    11:00 +7°C° 0 mm 1 m/s 630 mmHg 76%
    12:00 +7°C° 0 mm 1 m/s 630 mmHg 76%
    13:00 +7°C° 0 mm 1 m/s 630 mmHg 77%
    14:00 +7°C° 0.1 mm 1 m/s 629 mmHg 79%
    15:00 +7°C° 0.1 mm 1 m/s 629 mmHg 82%
    16:00 +6°C° 0.1 mm 1 m/s 629 mmHg 84%
    17:00 +5°C° 0 mm 1 m/s 628 mmHg 88%
    18:00 +3°C° 0 mm 1 m/s 628 mmHg 91%
    19:00 +2°C° 0 mm 1 m/s 628 mmHg 95%
    20:00 +1°C° 0 mm 1 m/s 628 mmHg 95%
    21:00 +1°C° 0 mm 1 m/s 628 mmHg 95%
    22:00 0°C° 0 mm 1 m/s 628 mmHg 94%
    23:00 0°C° 0 mm 1 m/s 628 mmHg 94%

    25 Mars, Lundi

    Heure Température Précipitation Vent Pression Humidité
    00:00 0°C° 0 mm 1 m/s 628 mmHg 93%
    01:00 0°C° 0 mm 1 m/s 628 mmHg 92%
    02:00 0°C° 0.3 mm 1 m/s 628 mmHg 93%
    03:00 0°C° 0.3 mm 1 m/s 628 mmHg 94%
    04:00 0°C° 0.3 mm 1 m/s 627 mmHg 94%
    05:00 0°C° 0.6 mm 1 m/s 628 mmHg 95%
    06:00 0°C° 0.6 mm 1 m/s 628 mmHg 95%
    07:00 +1°C° 0.6 mm 1 m/s 628 mmHg 96%
    08:00 +1°C° 0.4 mm 1 m/s 628 mmHg 94%
    09:00 +1°C° 0.4 mm 1 m/s 628 mmHg 92%
    10:00 +1°C° 0.4 mm 2 m/s 628 mmHg 90%
    11:00 +1°C° 0.1 mm 2 m/s 627 mmHg 88%
    12:00 +1°C° 0.1 mm 2 m/s 627 mmHg 86%
    13:00 +1°C° 0.1 mm 2 m/s 627 mmHg 84%
    14:00 +1°C° 0.1 mm 2 m/s 626 mmHg 83%
    15:00 +1°C° 0.1 mm 2 m/s 626 mmHg 82%
    16:00 +1°C° 0.1 mm 2 m/s 625 mmHg 82%
    17:00 -1°C° 0.4 mm 2 m/s 625 mmHg 86%
    18:00 -2°C° 0.4 mm 2 m/s 625 mmHg 90%
    19:00 -3°C° 0.4 mm 2 m/s 625 mmHg 94%
    20:00 -3°C° 0.6 mm 2 m/s 624 mmHg 94%
    21:00 -4°C° 0.6 mm 2 m/s 624 mmHg 94%
    22:00 -4°C° 0.6 mm 2 m/s 624 mmHg 94%
    23:00 -4°C° 0.5 mm 2 m/s 624 mmHg 94%
    Voir plus